Weather History for Marion, OH

Change the Weather History Date:

Thursday, December 6, 2012

  Actual Average (KDLZ) Record (KDLZ)
Temperature  
Mean Temperature 32 °F -  
Max Temperature 43 °F 42 °F 69 °F (1956)
Min Temperature 21 °F 26 °F 7 °F (1974)
Degree Days  
Heating Degree Days 33    
Moisture  
Dew Point 26 °F    
Average Humidity 74    
Maximum Humidity 89    
Minimum Humidity 58    
Precipitation  
Precipitation 0.00 in - - ()
Sea Level Pressure  
Sea Level Pressure 30.18 in    
Wind  
Wind Speed 6 mph (SSE)    
Max Wind Speed 13 mph    
Max Gust Speed 20 mph    
Visibility 10 miles    
Events      
Averages and records for this station are not official NWS values.
T = Trace of Precipitation, MM = Missing Value Source: NWS Daily Summary

Daily Weather History Graph

Daily Weather History Graph

Search for Another Location

Airport:

Trip Planner

Search our weather history database for the weather conditions in past years. The results will help you decide how hot, cold, wet, or windy it might be!

Date:

Astronomy

Dec. 06, 2012 Rise Set
Actual Time 7:41 AM EST 5:05 PM EST
Civil Twilight 7:11 AM EST 5:35 PM EST
Nautical Twilight 6:37 AM EST 6:09 PM EST
Astronomical Twilight 6:04 AM EST 6:42 PM EST
Moon No Moon Rise 12:32 PM EST (12/6)
Length of Visible Light 10h 24m
Length of Day
9h 23m
Waning Gibbous, 49% of the Moon is Illuminated
Dec 6
Waning Gibbous
Dec 13
New
Dec 20
First Quarter
Dec 28
Full
Jan 4
Last Quarter

Hourly Weather History & Observations

Time (EST) Temp. Windchill Dew Point Humidity Pressure Visibility Wind Dir Wind Speed Gust Speed Precip Events Conditions
12:53 AM 24.1 °F 17.0 °F 19.9 °F 84% 30.35 in 10.0 mi East 5.8 mph - N/A   Clear
1:53 AM 25.0 °F - 19.9 °F 81% 30.35 in 10.0 mi Calm Calm - N/A   Clear
2:53 AM 23.0 °F 17.0 °F 19.9 °F 88% 30.34 in 10.0 mi SE 4.6 mph - N/A   Clear
3:53 AM 24.1 °F 18.2 °F 19.9 °F 84% 30.32 in 10.0 mi SE 4.6 mph - N/A   Clear
4:53 AM 21.9 °F 17.2 °F 19.0 °F 89% 30.31 in 10.0 mi ESE 3.5 mph - N/A   Clear
5:53 AM 24.1 °F 17.0 °F 19.9 °F 84% 30.32 in 10.0 mi South 5.8 mph - N/A   Clear
6:53 AM 26.1 °F 17.6 °F 21.0 °F 81% 30.30 in 10.0 mi SE 8.1 mph - N/A   Clear
7:53 AM 26.1 °F 18.4 °F 21.0 °F 81% 30.30 in 10.0 mi SE 6.9 mph - N/A   Clear
8:53 AM 28.9 °F 18.6 °F 23.0 °F 78% 30.27 in 10.0 mi SE 12.7 mph - N/A   Clear
9:53 AM 30.9 °F 21.2 °F 24.1 °F 76% 30.24 in 10.0 mi SE 12.7 mph 19.6 mph N/A   Clear
10:53 AM 35.1 °F 27.4 °F 26.1 °F 70% 30.22 in 10.0 mi SSE 10.4 mph - N/A   Clear
11:53 AM 37.0 °F 29.3 °F 27.0 °F 67% 30.20 in 10.0 mi South 11.5 mph - N/A   Clear
12:53 PM 39.0 °F 34.0 °F 27.0 °F 62% 30.16 in 10.0 mi South 6.9 mph - N/A   Clear
1:53 PM 42.1 °F 40.2 °F 28.0 °F 58% 30.13 in 10.0 mi SE 3.5 mph - N/A   Clear
2:53 PM 43.0 °F 38.8 °F 28.9 °F 58% 30.10 in 10.0 mi SSE 6.9 mph - N/A   Clear
3:53 PM 42.1 °F 39.2 °F 30.0 °F 62% 30.09 in 10.0 mi SSE 4.6 mph - N/A   Clear
4:53 PM 39.0 °F 34.8 °F 28.9 °F 67% 30.09 in 10.0 mi South 5.8 mph - N/A   Clear
5:53 PM 37.9 °F 33.5 °F 28.9 °F 70% 30.08 in 10.0 mi SSE 5.8 mph - N/A   Clear
6:53 PM 37.0 °F 31.6 °F 28.9 °F 73% 30.08 in 10.0 mi SSE 6.9 mph - N/A   Scattered Clouds
7:53 PM 37.9 °F 32.7 °F 30.0 °F 73% 30.07 in 10.0 mi SSE 6.9 mph - N/A   Overcast
8:53 PM 37.9 °F 31.5 °F 30.0 °F 73% 30.04 in 10.0 mi SSE 9.2 mph - N/A   Mostly Cloudy
9:53 PM 39.0 °F 33.4 °F 32.0 °F 76% 30.04 in 10.0 mi South 8.1 mph - N/A   Overcast
10:53 PM 41.0 °F 35.2 °F 32.0 °F 70% 30.01 in 10.0 mi South 9.2 mph - N/A   Overcast
11:53 PM 41.0 °F 35.8 °F 34.0 °F 76% 30.01 in 10.0 mi South 8.1 mph - N/A   Overcast